Location: Unspecified
(0.0000°N, 0.0000°E)
Time: 18:48:12
(UTC+00:00)

S-56A Canister/Altair - Pass Details

Date: 27 November 2019
Orbit: 633 x 2499 km, 38.9° (Epoch: 06 December)

Event Time Altitude Azimuth Distance (km) Brightness Sun altitude
Rises 21:28:52 0° 331° (NNW) 3,456 - -50.0°
Reaches altitude 10° 21:32:10 10° 346° (NNW) 2,296 - -50.7°
Maximum altitude 21:36:05 22° 36° (NE) 1,462 - -51.5°
Drops below altitude 10° 21:39:34 10° 88° (E) 2,013 - -52.2°
Sets 21:42:14 0° 105° (ESE) 2,914 - -52.8°
